DW8690 Weather Reports


Display with metric or nautical units.
time (UTC)temp
F
wind
direction
speed
MPH
gust
MPH
rain 1hr
in
rain 24hr
in
rain mn
in
humidity
%
barometer
mb
20260505022004 50 134 2.0 7.0 0.00 0.06 0.06 73 1005.6
20260505021904 50 123 2.0 7.0 0.00 0.06 0.06 73 1005.5
20260505021804 50 117 2.0 7.0 0.00 0.06 0.06 73 1005.6
20260505021703 50 118 2.0 7.0 0.00 0.06 0.06 73 1005.5
20260505021604 50 117 2.0 8.0 0.00 0.06 0.06 73 1005.5
20260505021404 50 323 3.0 8.0 0.00 0.06 0.06 73 1005.5
20260505021304 50 303 3.0 8.0 0.00 0.06 0.06 73 1005.5
20260505021203 50 303 2.0 8.0 0.00 0.06 0.06 74 1005.5
20260505021104 50 307 2.0 8.0 0.00 0.06 0.06 74 1005.6
20260505021003 50 302 2.0 8.0 0.00 0.06 0.06 74 1005.5
20260505020904 50 292 2.0 8.0 0.00 0.06 0.06 74 1005.6
20260505020803 50 290 2.0 8.0 0.00 0.06 0.06 74 1005.6
20260505020704 50 288 4.0 8.0 0.00 0.06 0.06 74 1005.6
20260505020604 50 283 4.0 8.0 0.00 0.06 0.06 74 1005.6
20260505020504 50 273 4.0 8.0 0.00 0.06 0.06 74 1005.6
20260505020404 50 250 4.0 9.0 0.00 0.06 0.06 74 1005.6
20260505020307 50 188 4.0 9.0 0.00 0.06 0.06 74 1005.5
20260505020204 50 176 4.0 9.0 0.00 0.06 0.06 74 1005.4
20260505020004 50 165 4.0 9.0 0.00 0.06 0.06 73 1005.5
20260505015903 50 172 4.0 9.0 0.00 0.06 0.06 73 1005.4
20260505015704 50 181 2.0 9.0 0.00 0.06 0.06 73 1005.4
20260505015604 50 193 4.0 9.0 0.00 0.06 0.06 73 1005.5
20260505015504 50 204 4.0 9.0 0.00 0.06 0.06 73 1005.5
20260505015404 50 217 4.0 9.0 0.00 0.06 0.06 73 1005.6
20260505015304 51 231 5.0 8.0 0.00 0.06 0.06 73 1005.5
20260505015204 51 240 2.0 6.0 0.00 0.06 0.06 72 1005.8
20260505015004 51 234 2.0 6.0 0.00 0.06 0.06 72 1005.7
20260505014903 51 228 2.0 6.0 0.00 0.06 0.06 72 1005.7
20260505014703 51 145 2.0 7.0 0.00 0.06 0.06 72 1005.9
20260505014604 51 94 2.0 7.0 0.00 0.06 0.06 72 1005.8
20260505014504 51 75 2.0 7.0 0.00 0.06 0.06 72 1006.0
20260505014404 51 97 2.0 7.0 0.00 0.06 0.06 73 1005.9
20260505014303 51 112 2.0 7.0 0.00 0.06 0.06 73 1006.1
20260505014204 51 119 1.0 7.0 0.00 0.06 0.06 73 1006.0
20260505014104 51 128 2.0 8.0 0.00 0.06 0.06 73 1005.9
20260505014004 51 136 2.0 8.0 0.00 0.06 0.06 73 1006.1
20260505013904 51 140 2.0 8.0 0.00 0.06 0.06 73 1006.1
20260505013804 51 128 3.0 8.0 0.00 0.06 0.06 73 1006.0
20260505013704 51 138 2.0 8.0 0.00 0.06 0.06 74 1006.1
20260505013603 51 141 2.0 8.0 0.00 0.06 0.06 74 1006.0
20260505013403 51 139 2.0 8.0 0.00 0.06 0.06 74 1006.1
20260505013304 51 138 2.0 8.0 0.00 0.06 0.06 74 1006.1
20260505013203 51 129 2.0 8.0 0.00 0.06 0.06 74 1006.1
20260505013104 51 116 3.0 8.0 0.00 0.06 0.06 74 1006.0
20260505013003 51 117 3.0 8.0 0.00 0.06 0.06 74 1006.0
20260505012804 51 137 4.0 8.0 0.00 0.06 0.06 74 1006.1
20260505012703 51 138 2.0 7.0 0.00 0.06 0.06 74 1006.2
20260505012604 51 141 2.0 7.0 0.00 0.06 0.06 74 1006.2
20260505012304 51 145 3.0 8.0 0.00 0.06 0.06 74 1006.2
20260505012203 51 155 4.0 8.0 0.00 0.06 0.06 75 1006.2
20260505012103 51 155 3.0 8.0 0.00 0.06 0.06 75 1006.3
20260505011904 50 149 4.0 8.0 0.00 0.06 0.06 75 1006.2
20260505011803 50 156 2.0 8.0 0.00 0.06 0.06 75 1006.3
20260505011704 50 154 2.0 8.0 0.00 0.06 0.06 75 1006.3
20260505011504 50 144 3.0 10.0 0.00 0.06 0.06 75 1006.3
20260505011305 50 141 2.0 10.0 0.00 0.06 0.06 75 1006.3
20260505011204 50 136 2.0 11.0 0.00 0.06 0.06 75 1006.4
20260505011103 50 139 3.0 11.0 0.00 0.06 0.06 75 1006.4
20260505011004 50 137 2.0 11.0 0.00 0.06 0.06 75 1006.4
20260505010903 50 133 2.0 11.0 0.00 0.06 0.06 75 1006.3
20260505010804 50 134 5.0 11.0 0.00 0.06 0.06 74 1006.3
20260505010704 50 135 4.0 11.0 0.00 0.06 0.06 75 1006.3
20260505010603 50 130 5.0 11.0 0.00 0.06 0.06 74 1006.3
20260505010504 50 134 4.0 11.0 0.00 0.06 0.06 75 1006.3
20260505010303 50 134 7.0 11.0 0.00 0.06 0.06 74 1006.4
20260505010204 50 144 7.0 13.0 0.00 0.06 0.06 74 1006.4
20260505010103 50 149 5.0 13.0 0.00 0.06 0.06 74 1006.3
20260505010004 50 154 5.0 13.0 0.00 0.06 0.06 75 1006.4
20260505005903 50 154 6.0 13.0 0.00 0.06 0.06 75 1006.5
20260505005804 50 148 7.0 13.0 0.00 0.06 0.06 76 1006.3
20260505005703 50 146 1.0 13.0 0.00 0.06 0.06 76 1006.3
20260505005604 50 148 3.0 13.0 0.00 0.06 0.06 76 1006.4
20260505005503 50 145 2.0 13.0 0.00 0.06 0.06 77 1006.4
20260505005404 50 149 2.0 13.0 0.00 0.06 0.06 77 1006.3
20260505005304 50 147 6.0 13.0 0.00 0.06 0.06 77 1006.3
20260505005204 50 143 7.0 13.0 0.00 0.06 0.06 77 1006.3
20260505005104 50 139 6.0 11.0 0.00 0.06 0.06 77 1006.2
20260505005004 50 147 5.0 11.0 0.00 0.06 0.06 78 1006.3
20260505004904 50 142 5.0 11.0 0.00 0.06 0.06 78 1006.3
20260505004804 50 142 5.0 11.0 0.00 0.06 0.06 78 1006.4
20260505004704 50 138 5.0 11.0 0.00 0.06 0.06 78 1006.3
20260505004603 50 148 5.0 11.0 0.00 0.06 0.06 78 1006.3
20260505004504 50 154 5.0 11.0 0.00 0.06 0.06 78 1006.4
20260505004404 50 150 5.0 12.0 0.00 0.06 0.06 78 1006.5
20260505004304 49 149 5.0 12.0 0.00 0.06 0.06 78 1006.4
20260505004204 50 149 7.0 12.0 0.00 0.06 0.06 79 1006.5
20260505004104 50 140 7.0 12.0 0.00 0.06 0.06 79 1006.5
20260505004004 49 129 5.0 12.0 0.00 0.06 0.06 79 1006.5
20260505003903 49 140 6.0 12.0 0.00 0.06 0.06 79 1006.5
20260505003703 49 144 7.0 12.0 0.00 0.06 0.06 80 1006.5
20260505003604 49 133 4.0 12.0 0.00 0.06 0.06 80 1006.6
20260505003504 49 131 7.0 12.0 0.00 0.06 0.06 80 1006.5
20260505003404 49 131 7.0 12.0 0.00 0.06 0.06 80 1006.4
20260505003304 49 123 5.0 13.0 0.00 0.06 0.06 80 1006.6
20260505003103 49 127 7.0 13.0 0.00 0.06 0.06 80 1006.4
20260505003004 49 136 7.0 14.0 0.00 0.06 0.06 80 1006.4
20260505002804 49 121 8.0 14.0 0.00 0.06 0.06 80 1006.5
20260505002704 49 120 7.0 14.0 0.00 0.06 0.06 81 1006.5
20260505002604 49 121 7.0 14.0 0.00 0.06 0.06 81 1006.6
20260505002503 49 121 6.0 14.0 0.00 0.06 0.06 81 1006.6
20260505002404 49 120 6.0 14.0 0.00 0.06 0.06 81 1006.7
20260505002003 49 116 8.0 13.0 0.00 0.06 0.06 81 1006.6
20260505001904 49 114 6.0 13.0 0.00 0.06 0.06 82 1006.5
20260505001803 49 114 8.0 13.0 0.01 0.06 0.06 82 1006.6
20260505001704 49 118 8.0 13.0 0.01 0.06 0.06 82 1006.5
20260505001603 49 115 7.0 13.0 0.01 0.06 0.06 82 1006.5
20260505001504 49 111 7.0 13.0 0.01 0.06 0.06 82 1006.6
20260505001403 49 109 6.0 13.0 0.01 0.06 0.06 81 1006.7
20260505001304 49 108 7.0 13.0 0.01 0.06 0.06 81 1006.6
20260505001203 49 110 8.0 13.0 0.01 0.06 0.06 82 1006.6
20260505001003 49 125 8.0 12.0 0.01 0.06 0.06 82 1006.7
20260505000904 49 127 5.0 12.0 0.01 0.06 0.06 82 1006.8
20260505000704 49 124 4.0 12.0 0.01 0.06 0.06 82 1006.7
20260505000504 49 127 5.0 12.0 0.01 0.06 0.06 81 1006.9
20260505000405 49 123 5.0 12.0 0.01 0.06 0.06 81 1006.8
20260505000304 49 127 7.0 12.0 0.01 0.06 0.06 82 1006.7
20260505000103 49 123 5.0 12.0 0.01 0.06 0.06 82 1006.7
20260505000004 49 116 5.0 12.0 0.01 0.06 0.06 82 1006.8
20260504235904 49 110 5.0 12.0 0.01 0.06 0.06 82 1006.8
20260504235804 49 112 6.0 12.0 0.01 0.06 0.06 83 1006.8
20260504235604 49 121 8.0 13.0 0.01 0.06 0.06 83 1006.8
20260504235503 49 132 5.0 13.0 0.01 0.06 0.06 84 1006.8
20260504235404 49 136 6.0 13.0 0.01 0.06 0.06 84 1006.7
20260504235304 49 132 6.0 14.0 0.01 0.06 0.06 84 1006.8
20260504235204 49 131 4.0 14.0 0.01 0.06 0.06 83 1006.8
20260504235004 49 133 8.0 14.0 0.01 0.06 0.06 83 1006.7
20260504234904 49 135 4.0 14.0 0.01 0.06 0.06 83 1006.8
20260504234704 49 144 7.0 14.0 0.01 0.06 0.06 83 1006.8
20260504234603 49 148 6.0 14.0 0.01 0.06 0.06 83 1006.8
20260504234504 49 145 6.0 14.0 0.01 0.06 0.06 83 1006.7
20260504234403 49 158 7.0 17.0 0.01 0.06 0.06 83 1006.8
20260504234308 49 161 7.0 17.0 0.01 0.06 0.06 82 1006.7
20260504234210 49 155 4.0 17.0 0.01 0.06 0.06 82 1006.8
20260504234108 49 154 4.0 17.0 0.01 0.06 0.06 82 1006.9
20260504233907 49 175 6.0 17.0 0.01 0.06 0.06 82 1006.8
20260504233807 49 170 6.0 17.0 0.01 0.06 0.06 82 1006.8
20260504233708 49 164 6.0 17.0 0.01 0.06 0.06 82 1006.7
20260504233307 49 126 8.0 14.0 0.01 0.06 0.06 81 1006.5
20260504233208 49 126 4.0 15.0 0.01 0.06 0.06 81 1006.6
20260504233007 49 111 4.0 15.0 0.04 0.06 0.06 81 1006.6
20260504232908 49 108 7.0 15.0 0.04 0.06 0.06 81 1006.6
20260504232807 49 106 5.0 15.0 0.04 0.06 0.06 80 1006.6
20260504232707 49 101 4.0 15.0 0.04 0.06 0.06 80 1006.6
20260504232608 49 104 5.0 15.0 0.04 0.06 0.06 81 1006.6
20260504232507 49 112 7.0 15.0 0.04 0.06 0.06 80 1006.6
20260504232407 49 116 11.0 15.0 0.04 0.06 0.06 80 1006.6
20260504232307 49 111 8.0 17.0 0.04 0.06 0.06 80 1006.7
20260504232207 49 111 4.0 17.0 0.05 0.06 0.06 79 1006.5
20260504232108 49 108 4.0 19.0 0.05 0.06 0.06 79 1006.7
20260504231907 49 107 6.0 19.0 0.04 0.05 0.05 78 1006.8
20260504231808 49 114 4.0 19.0 0.04 0.05 0.05 78 1006.7
20260504231707 49 116 4.0 19.0 0.05 0.05 0.05 78 1006.8
20260504231607 50 117 6.0 19.0 0.05 0.05 0.05 76 1006.8
20260504231508 50 115 6.0 19.0 0.05 0.05 0.05 76 1006.8
20260504231407 50 111 9.0 19.0 0.05 0.05 0.05 76 1006.8
20260504231307 50 113 11.0 19.0 0.05 0.05 0.05 76 1006.8
20260504231208 50 115 14.0 19.0 0.05 0.05 0.05 75 1006.8
20260504231107 51 115 8.0 14.0 0.05 0.05 0.05 74 1006.8
20260504231007 51 115 9.0 14.0 0.05 0.05 0.05 74 1006.8
20260504230807 51 123 6.0 11.0 0.05 0.05 0.05 73 1006.6
20260504230707 51 130 7.0 11.0 0.05 0.05 0.05 73 1006.5
20260504230508 51 142 6.0 9.0 0.05 0.05 0.05 72 1006.4
20260504230407 51 149 5.0 9.0 0.05 0.05 0.05 71 1006.4
20260504230308 51 150 4.0 9.0 0.05 0.05 0.05 71 1006.3
20260504230207 51 151 5.0 9.0 0.05 0.05 0.05 71 1006.3
20260504230008 51 164 5.0 9.0 0.05 0.05 0.05 71 1006.2
20260504225907 51 162 5.0 9.0 0.05 0.05 0.05 70 1006.1
20260504225807 51 155 5.0 8.0 0.05 0.05 0.05 70 1006.1
20260504225708 51 139 5.0 8.0 0.05 0.05 0.05 71 1005.9
20260504225607 52 112 3.0 9.0 0.05 0.05 0.05 70 1005.9
20260504225508 51 98 2.0 9.0 0.05 0.05 0.05 71 1005.9
20260504225407 52 99 2.0 9.0 0.05 0.05 0.05 70 1005.9
20260504225308 52 94 2.0 11.0 0.05 0.05 0.05 70 1005.9
20260504225207 51 92 2.0 11.0 0.05 0.05 0.05 71 1005.8
20260504225107 51 95 3.0 11.0 0.05 0.05 0.05 71 1005.9
20260504225008 51 98 2.0 11.0 0.05 0.05 0.05 71 1005.8
20260504224907 51 105 2.0 11.0 0.05 0.05 0.05 71 1005.8
20260504224808 52 112 3.0 13.0 0.05 0.05 0.05 71 1005.8
20260504224708 52 119 4.0 13.0 0.05 0.05 0.05 70 1005.8
20260504224607 52 120 6.0 13.0 0.05 0.05 0.05 70 1005.8
20260504224407 52 129 4.0 13.0 0.05 0.05 0.05 69 1005.9
20260504224307 52 135 7.0 13.0 0.05 0.05 0.05 69 1005.8
20260504224207 52 141 7.0 13.0 0.05 0.05 0.05 69 1005.9
20260504224107 52 138 7.0 13.0 0.05 0.06 0.05 68 1005.9
20260504224008 53 131 8.0 13.0 0.05 0.06 0.05 67 1005.9
20260504223907 53 132 8.0 13.0 0.05 0.06 0.05 67 1005.8
20260504223808 53 126 8.0 13.0 0.05 0.06 0.05 67 1005.9
20260504223707 54 123 8.0 13.0 0.05 0.06 0.05 66 1005.9
20260504223608 54 129 6.0 13.0 0.05 0.06 0.05 64 1005.8
20260504223407 55 141 8.0 13.0 0.05 0.06 0.05 63 1005.8
20260504223308 55 151 6.0 12.0 0.05 0.06 0.05 61 1005.6
20260504223207 56 169 4.0 11.0 0.04 0.05 0.04 59 1005.7
20260504223108 56 189 5.0 11.0 0.02 0.04 0.02 61 1005.8
20260504223007 56 209 5.0 13.0 0.02 0.04 0.02 61 1005.6
20260504222907 56 218 7.0 13.0 0.02 0.04 0.02 61 1005.6
20260504222807 57 237 2.0 15.0 0.02 0.04 0.02 60 1005.7
20260504222707 57 246 3.0 15.0 0.02 0.04 0.02 60 1005.6
20260504222608 57 260 4.0 16.0 0.02 0.04 0.02 60 1005.6
20260504222507 57 272 4.0 16.0 0.02 0.04 0.02 59 1005.5
20260504222408 57 285 5.0 16.0 0.02 0.04 0.02 58 1005.5
20260504222307 58 283 4.0 17.0 0.02 0.04 0.02 58 1005.4
20260504222107 58 280 7.0 20.0 0.01 0.02 0.01 55 1005.4
20260504222007 59 287 8.0 21.0 0.01 0.02 0.01 51 1005.4
20260504221908 59 288 11.0 21.0 0.01 0.02 0.01 49 1005.4
20260504221807 59 286 11.0 22.0 0.00 0.01 0.00 49 1005.4
20260504221707 60 283 9.0 22.0 0.00 0.01 0.00 48 1005.4
20260504221508 60 270 11.0 22.0 0.00 0.01 0.00 43 1005.3
20260504221307 60 270 13.0 22.0 0.00 0.01 0.00 42 1005.3
20260504221208 60 276 17.0 24.0 0.00 0.01 0.00 42 1005.3
20260504221107 60 275 12.0 24.0 0.00 0.01 0.00 42 1005.3
20260504220909 61 272 15.0 24.0 0.00 0.01 0.00 41 1005.2
20260504220807 61 270 16.0 24.0 0.00 0.01 0.00 40 1005.2
20260504220707 61 270 13.0 24.0 0.00 0.01 0.00 40 1005.4
20260504220607 61 270 15.0 24.0 0.00 0.01 0.00 40 1005.3
20260504220507 61 270 11.0 24.0 0.00 0.01 0.00 40 1005.3
20260504220308 62 270 17.0 24.0 0.00 0.01 0.00 40 1005.3
20260504220207 62 270 16.0 23.0 0.00 0.01 0.00 40 1005.4
20260504220108 62 274 17.0 23.0 0.00 0.01 0.00 40 1005.4
20260504220007 62 274 15.0 21.0 0.00 0.01 0.00 39 1005.4
20260504215808 62 280 14.0 18.0 0.00 0.01 0.00 39 1005.3
20260504215707 62 282 14.0 18.0 0.00 0.01 0.00 39 1005.4
20260504215608 62 282 9.0 17.0 0.00 0.01 0.00 39 1005.4
20260504215407 62 283 13.0 17.0 0.00 0.01 0.00 39 1005.4
20260504215308 62 284 8.0 17.0 0.00 0.01 0.00 39 1005.4
20260504215107 63 287 12.0 17.0 0.00 0.01 0.00 38 1005.4
20260504215008 63 296 8.0 14.0 0.00 0.01 0.00 38 1005.3
20260504214807 63 305 8.0 12.0 0.00 0.01 0.00 37 1005.4
20260504214708 64 308 9.0 12.0 0.00 0.01 0.00 37 1005.3
20260504214608 64 316 8.0 12.0 0.00 0.01 0.00 35 1005.4
20260504214508 64 324 8.0 12.0 0.00 0.01 0.00 35 1005.4
20260504214407 64 331 2.0 12.0 0.00 0.01 0.00 34 1005.4
20260504214308 64 333 4.0 12.0 0.00 0.01 0.00 33 1005.4
20260504214207 64 338 3.0 12.0 0.00 0.01 0.00 34 1005.4
20260504214108 64 323 5.0 14.0 0.00 0.01 0.00 33 1005.4
20260504214007 64 307 5.0 14.0 0.00 0.01 0.00 33 1005.5
20260504213908 64 304 4.0 14.0 0.00 0.01 0.00 33 1005.5
20260504213807 64 294 7.0 14.0 0.00 0.01 0.00 33 1005.5
20260504213708 64 299 4.0 14.0 0.00 0.01 0.00 33 1005.5
20260504213507 64 288 5.0 14.0 0.00 0.01 0.00 33 1005.4
20260504213307 65 279 4.0 14.0 0.00 0.01 0.00 34 1005.5
20260504212807 65 264 6.0 12.0 0.00 0.01 0.00 33 1005.4
20260504212707 65 266 2.0 11.0 0.00 0.01 0.00 32 1005.4
20260504212507 65 271 8.0 11.0 0.00 0.01 0.00 31 1005.6
20260504212408 65 264 8.0 11.0 0.00 0.01 0.00 31 1005.5
20260504212307 65 259 6.0 9.0 0.00 0.01 0.00 33 1005.6
20260504212207 65 259 4.0 8.0 0.00 0.01 0.00 33 1005.6
20260504212108 65 0 0.0 8.0 0.00 0.01 0.00 33 1005.6
20260504212007 65 272 1.0 11.0 0.00 0.01 0.00 32 1005.6
20260504211907 65 276 2.0 11.0 0.00 0.01 0.00 32 1005.6
20260504211707 65 282 5.0 12.0 0.00 0.01 0.00 32 1005.6
20260504211508 65 290 4.0 12.0 0.00 0.01 0.00 30 1005.7
20260504211407 66 290 4.0 12.0 0.00 0.01 0.00 31 1005.7
20260504211307 66 299 4.0 12.0 0.00 0.01 0.00 31 1005.8
20260504211207 65 305 4.0 12.0 0.00 0.01 0.00 32 1005.8
20260504211107 65 304 3.0 12.0 0.00 0.01 0.00 33 1005.8
20260504211008 65 305 5.0 12.0 0.00 0.01 0.00 33 1005.7
20260504210908 65 308 6.0 12.0 0.00 0.01 0.00 33 1005.8
20260504210807 65 322 2.0 12.0 0.00 0.01 0.00 34 1005.7
20260504210708 64 332 3.0 12.0 0.00 0.01 0.00 35 1005.8
20260504210607 64 345 5.0 12.0 0.00 0.01 0.00 35 1005.6
20260504210507 64 343 5.0 12.0 0.00 0.01 0.00 35 1005.6
20260504210408 64 341 8.0 12.0 0.00 0.01 0.00 34 1005.7
20260504210208 63 345 8.0 12.0 0.00 0.01 0.00 34 1005.7
20260504210107 63 0 0.0 12.0 0.00 0.01 0.00 35 1005.7
20260504210008 63 341 2.0 12.0 0.00 0.01 0.00 34 1005.8
20260504205907 63 329 2.0 12.0 0.00 0.01 0.00 35 1005.7
20260504205807 63 330 4.0 12.0 0.00 0.01 0.00 34 1005.7
20260504205607 63 307 5.0 14.0 0.00 0.01 0.00 35 1005.7
20260504205507 63 296 7.0 14.0 0.00 0.01 0.00 35 1005.7
20260504205407 63 285 5.0 14.0 0.00 0.01 0.00 35 1005.8
20260504205307 64 281 4.0 14.0 0.00 0.01 0.00 36 1005.7
20260504205208 64 278 3.0 14.0 0.00 0.01 0.00 35 1005.9
20260504205107 64 281 3.0 14.0 0.00 0.01 0.00 35 1005.8
20260504205007 64 277 3.0 14.0 0.00 0.01 0.00 36 1005.9
20260504204807 63 274 3.0 14.0 0.00 0.01 0.00 37 1005.9
20260504204708 63 275 5.0 14.0 0.00 0.01 0.00 36 1006.1
20260504204507 63 282 9.0 14.0 0.00 0.01 0.00 35 1005.9
20260504204408 63 282 8.0 13.0 0.00 0.01 0.00 34 1005.9
20260504204307 64 286 4.0 12.0 0.00 0.01 0.00 34 1005.9
20260504204208 63 287 4.0 12.0 0.00 0.01 0.00 34 1006.0
20260504204107 63 279 4.0 12.0 0.00 0.01 0.00 33 1005.9
20260504204007 64 277 5.0 12.0 0.00 0.01 0.00 32 1005.8
20260504203907 64 280 6.0 12.0 0.00 0.01 0.00 33 1006.0
20260504203807 64 286 5.0 12.0 0.00 0.01 0.00 33 1005.9
20260504203708 64 285 7.0 12.0 0.00 0.01 0.00 32 1006.0
20260504203607 65 291 7.0 12.0 0.00 0.01 0.00 31 1006.0
20260504203508 65 291 4.0 12.0 0.00 0.01 0.00 31 1005.9
20260504203407 65 291 6.0 14.0 0.00 0.01 0.00 32 1006.0
20260504203308 64 288 8.0 14.0 0.00 0.01 0.00 32 1006.0
20260504203207 64 286 5.0 14.0 0.00 0.01 0.00 30 1006.0
20260504203007 64 294 7.0 14.0 0.00 0.01 0.00 31 1006.0
20260504202907 64 291 7.0 14.0 0.00 0.01 0.00 31 1006.1
20260504202807 64 294 4.0 14.0 0.00 0.01 0.00 31 1006.3
20260504202708 64 289 5.0 14.0 0.00 0.01 0.00 31 1006.1
20260504202607 64 289 8.0 14.0 0.00 0.01 0.00 31 1006.2
20260504202507 64 292 8.0 14.0 0.00 0.01 0.00 31 1006.2
20260504202409 64 294 6.0 14.0 0.00 0.01 0.00 30 1006.1
20260504202307 64 296 3.0 14.0 0.00 0.01 0.00 31 1006.1
20260504202007 64 303 4.0 13.0 0.00 0.01 0.00 32 1006.3
20260504201908 64 305 7.0 13.0 0.00 0.01 0.00 32 1006.2
20260504201807 64 304 8.0 13.0 0.00 0.01 0.00 31 1006.2
20260504201708 64 303 7.0 13.0 0.00 0.01 0.00 32 1006.3
20260504201607 64 308 7.0 15.0 0.00 0.01 0.00 33 1006.2
20260504201508 64 308 7.0 15.0 0.00 0.01 0.00 33 1006.3
20260504201407 63 311 7.0 15.0 0.00 0.01 0.00 33 1006.3
20260504201308 63 314 8.0 15.0 0.00 0.01 0.00 32 1006.4
20260504201207 63 314 8.0 15.0 0.00 0.01 0.00 34 1006.3
20260504201108 63 314 7.0 15.0 0.00 0.01 0.00 36 1006.4
20260504200808 62 314 8.0 15.0 0.00 0.01 0.00 37 1006.4
20260504200707 62 316 7.0 16.0 0.00 0.01 0.00 39 1006.4
20260504200607 61 316 8.0 16.0 0.00 0.01 0.00 39 1006.4
20260504200507 61 311 6.0 16.0 0.00 0.01 0.00 39 1006.4
20260504200407 61 311 6.0 16.0 0.00 0.01 0.00 39 1006.4
20260504200307 61 311 8.0 16.0 0.00 0.01 0.00 39 1006.4
20260504200207 61 311 8.0 16.0 0.00 0.01 0.00 40 1006.4
20260504200107 61 306 8.0 16.0 0.00 0.01 0.00 40 1006.3
20260504200008 61 303 8.0 16.0 0.00 0.01 0.00 40 1006.4
20260504195908 61 306 8.0 16.0 0.00 0.01 0.00 41 1006.4
20260504195807 61 304 8.0 16.0 0.00 0.01 0.00 42 1006.4
20260504195607 60 304 9.0 16.0 0.00 0.01 0.00 43 1006.4
20260504195508 60 308 6.0 16.0 0.00 0.01 0.00 44 1006.4
20260504195407 60 306 5.0 16.0 0.00 0.01 0.00 45 1006.5
20260504195308 60 306 8.0 16.0 0.00 0.01 0.00 44 1006.4
20260504195008 60 320 7.0 16.0 0.00 0.01 0.00 44 1006.4
20260504194707 60 322 6.0 16.0 0.00 0.01 0.00 47 1006.5
20260504194607 60 320 6.0 16.0 0.00 0.01 0.00 47 1006.5
20260504194507 60 320 6.0 16.0 0.00 0.01 0.00 47 1006.4
20260504194408 59 319 11.0 16.0 0.00 0.01 0.00 47 1006.5
20260504194307 59 319 7.0 16.0 0.00 0.01 0.00 48 1006.4
20260504194207 59 317 9.0 16.0 0.00 0.01 0.00 48 1006.5
20260504194107 59 320 9.0 16.0 0.00 0.01 0.00 49 1006.5
20260504194007 59 316 7.0 16.0 0.00 0.01 0.00 49 1006.5
20260504193908 59 314 8.0 16.0 0.00 0.01 0.00 49 1006.5
20260504193807 59 312 11.0 16.0 0.00 0.01 0.00 48 1006.5
20260504193708 59 308 10.0 15.0 0.00 0.01 0.00 49 1006.5
20260504193607 59 317 8.0 15.0 0.00 0.01 0.00 49 1006.4
20260504193507 59 321 8.0 15.0 0.00 0.01 0.00 50 1006.5
20260504193407 60 325 8.0 15.0 0.00 0.01 0.00 49 1006.5
20260504193307 60 329 10.0 15.0 0.00 0.01 0.00 49 1006.5
20260504193207 60 332 4.0 15.0 0.00 0.01 0.00 48 1006.5
20260504193107 60 329 8.0 15.0 0.00 0.01 0.00 48 1006.5
20260504193007 60 333 8.0 15.0 0.00 0.01 0.00 48 1006.6
20260504192908 60 335 8.0 15.0 0.00 0.01 0.00 47 1006.6
20260504192807 60 337 8.0 15.0 0.00 0.01 0.00 48 1006.5
20260504192707 59 339 7.0 16.0 0.00 0.01 0.00 48 1006.5
20260504192607 59 334 8.0 16.0 0.00 0.01 0.00 47 1006.4
20260504192508 59 330 9.0 16.0 0.00 0.01 0.00 47 1006.5
20260504192407 60 328 8.0 16.0 0.00 0.01 0.00 47 1006.5
20260504192307 60 325 7.0 16.0 0.00 0.01 0.00 47 1006.4
20260504192207 60 321 8.0 16.0 0.00 0.01 0.00 47 1006.4
20260504192007 60 315 9.0 16.0 0.00 0.01 0.00 47 1006.5
20260504191908 60 314 8.0 16.0 0.00 0.01 0.00 47 1006.5
20260504191708 60 316 9.0 16.0 0.00 0.01 0.00 46 1006.6
20260504191507 60 312 7.0 15.0 0.00 0.01 0.00 46 1006.6
20260504191408 60 316 10.0 15.0 0.00 0.01 0.00 45 1006.6
20260504191207 60 323 8.0 17.0 0.00 0.01 0.00 45 1006.6
20260504191107 60 323 9.0 17.0 0.00 0.01 0.00 46 1006.7
20260504191007 60 324 7.0 17.0 0.00 0.01 0.00 46 1006.8
20260504190908 60 322 7.0 18.0 0.00 0.01 0.00 46 1006.6
20260504190807 60 315 9.0 18.0 0.00 0.01 0.00 47 1006.7
20260504190707 60 313 10.0 18.0 0.00 0.01 0.00 46 1006.6
20260504190607 60 313 10.0 18.0 0.00 0.01 0.00 46 1006.6
20260504190507 60 315 8.0 18.0 0.00 0.01 0.00 46 1006.8
20260504190408 60 317 10.0 20.0 0.00 0.01 0.00 45 1006.6
20260504190307 60 317 10.0 20.0 0.00 0.01 0.00 46 1006.7
20260504190207 60 317 9.0 20.0 0.00 0.01 0.00 47 1006.6
20260504190108 61 326 11.0 20.0 0.00 0.01 0.00 48 1006.7
20260504190007 61 333 10.0 20.0 0.00 0.01 0.00 48 1006.7
20260504185908 61 340 10.0 20.0 0.00 0.01 0.00 48 1006.8
20260504185807 60 347 10.0 20.0 0.00 0.01 0.00 49 1006.8
20260504185708 60 351 6.0 20.0 0.00 0.01 0.00 50 1006.8
20260504185607 60 349 10.0 20.0 0.00 0.01 0.00 49 1006.7
20260504185507 60 348 11.0 20.0 0.00 0.01 0.00 50 1006.7
20260504185407 60 349 11.0 19.0 0.00 0.01 0.00 49 1006.6
20260504185307 60 350 12.0 19.0 0.00 0.01 0.00 50 1006.8
20260504185207 59 356 11.0 19.0 0.00 0.01 0.00 49 1006.9
20260504185007 59 348 13.0 18.0 0.00 0.01 0.00 49 1006.8
20260504184808 59 342 11.0 17.0 0.00 0.01 0.00 49 1006.8
20260504184707 59 338 10.0 17.0 0.00 0.01 0.00 49 1006.8
20260504184607 59 337 11.0 17.0 0.00 0.01 0.00 49 1006.8
20260504184508 59 347 11.0 17.0 0.00 0.01 0.00 49 1006.7
20260504184407 59 351 11.0 17.0 0.00 0.01 0.00 49 1006.8
20260504184307 59 355 8.0 17.0 0.00 0.01 0.00 49 1006.9
20260504184207 59 353 8.0 17.0 0.00 0.01 0.00 48 1006.8
20260504184108 59 359 8.0 17.0 0.00 0.01 0.00 49 1006.8
20260504184007 59 351 10.0 17.0 0.00 0.01 0.00 49 1006.8
20260504183907 59 350 7.0 18.0 0.00 0.01 0.00 49 1006.7
20260504183707 59 355 9.0 18.0 0.00 0.01 0.00 49 1006.7
20260504183607 59 358 6.0 18.0 0.00 0.01 0.00 49 1006.8
20260504183507 59 352 8.0 18.0 0.00 0.01 0.00 49 1006.8
20260504183308 59 342 8.0 18.0 0.00 0.01 0.00 48 1006.8
20260504183107 60 328 11.0 18.0 0.00 0.01 0.00 45 1006.7
20260504183008 60 327 11.0 18.0 0.00 0.01 0.00 45 1006.7
20260504182807 60 321 6.0 10.0 0.00 0.01 0.00 41 1006.6
20260504182607 60 321 6.0 9.0 0.00 0.01 0.00 40 1006.5
20260504182507 60 321 4.0 9.0 0.00 0.01 0.00 40 1006.4
20260504182407 61 318 4.0 9.0 0.00 0.01 0.00 40 1006.4
20260504182107 61 311 6.0 9.0 0.00 0.01 0.00 39 1006.4
20260504182007 61 316 4.0 8.0 0.00 0.01 0.00 40 1006.5
20260504181808 61 319 4.0 8.0 0.00 0.01 0.00 40 1006.5
20260504181707 61 314 4.0 8.0 0.00 0.01 0.00 40 1006.4
20260504181607 61 310 3.0 8.0 0.00 0.01 0.00 40 1006.5
20260504181507 61 310 3.0 8.0 0.00 0.01 0.00 40 1006.5
20260504181408 61 310 3.0 8.0 0.00 0.01 0.00 40 1006.5
20260504181307 61 316 3.0 8.0 0.00 0.01 0.00 40 1006.6
20260504181107 61 321 2.0 8.0 0.00 0.01 0.00 42 1006.4
20260504181007 61 319 4.0 8.0 0.00 0.01 0.00 41 1006.6
20260504180908 61 314 2.0 8.0 0.00 0.01 0.00 42 1006.6
20260504180807 61 317 4.0 8.0 0.00 0.01 0.00 42 1006.5
20260504180607 61 323 4.0 10.0 0.00 0.01 0.00 42 1006.6
20260504180507 61 324 4.0 10.0 0.00 0.01 0.00 42 1006.6
20260504180407 60 324 3.0 10.0 0.00 0.01 0.00 43 1006.6
20260504180307 60 321 3.0 10.0 0.00 0.01 0.00 43 1006.5
20260504180207 60 317 4.0 10.0 0.00 0.01 0.00 44 1006.6
20260504180107 60 315 4.0 10.0 0.00 0.01 0.00 43 1006.6
20260504180007 60 314 4.0 10.0 0.00 0.01 0.00 43 1006.6
20260504175908 60 318 3.0 10.0 0.00 0.01 0.00 43 1006.5
20260504175807 60 316 4.0 10.0 0.00 0.01 0.00 42 1006.5
20260504175707 60 314 5.0 10.0 0.00 0.01 0.00 42 1006.4
20260504175607 60 310 4.0 10.0 0.00 0.01 0.00 43 1006.4
20260504175507 60 307 6.0 10.0 0.00 0.01 0.00 43 1006.5
20260504175407 61 303 4.0 8.0 0.00 0.01 0.00 43 1006.4
20260504175207 60 303 3.0 8.0 0.00 0.01 0.00 45 1006.5
20260504175108 60 299 2.0 8.0 0.00 0.01 0.00 45 1006.5
20260504175007 60 296 2.0 8.0 0.00 0.01 0.00 45 1006.4
20260504174907 60 291 4.0 8.0 0.00 0.01 0.00 44 1006.5
20260504174807 60 292 5.0 8.0 0.00 0.01 0.00 43 1006.5
20260504174707 60 290 3.0 7.0 0.00 0.01 0.00 44 1006.5
20260504174607 60 292 3.0 7.0 0.00 0.01 0.00 44 1006.6
20260504174507 60 292 3.0 7.0 0.00 0.01 0.00 44 1006.5
20260504174407 60 291 3.0 7.0 0.00 0.01 0.00 43 1006.6
20260504174307 60 288 3.0 7.0 0.00 0.01 0.00 42 1006.6
20260504174207 60 282 4.0 7.0 0.00 0.01 0.00 42 1006.5
20260504174107 60 287 4.0 7.0 0.00 0.01 0.00 43 1006.5
20260504174007 60 292 4.0 7.0 0.00 0.01 0.00 43 1006.5
20260504173907 60 294 3.0 7.0 0.00 0.01 0.00 44 1006.5
20260504173707 60 288 3.0 6.0 0.00 0.01 0.00 44 1006.5
20260504173607 60 288 2.0 6.0 0.00 0.01 0.00 45 1006.5
20260504173507 60 292 2.0 8.0 0.00 0.01 0.00 45 1006.4
20260504173408 60 297 4.0 8.0 0.00 0.01 0.00 44 1006.4
20260504173307 60 297 3.0 8.0 0.00 0.01 0.00 45 1006.5
20260504173208 60 299 3.0 8.0 0.00 0.01 0.00 45 1006.5
20260504173107 60 296 2.0 8.0 0.00 0.01 0.00 45 1006.5
20260504173007 60 296 2.0 8.0 0.00 0.01 0.00 45 1006.4
20260504172907 60 294 2.0 8.0 0.00 0.01 0.00 44 1006.4
20260504172807 60 296 3.0 8.0 0.00 0.01 0.00 45 1006.4
20260504172708 60 295 2.0 8.0 0.00 0.01 0.00 46 1006.4
20260504172607 60 297 4.0 8.0 0.00 0.01 0.00 47 1006.4
20260504172508 60 298 5.0 8.0 0.00 0.01 0.00 46 1006.5
20260504172307 60 297 3.0 8.0 0.00 0.01 0.00 44 1006.5
20260504172208 60 304 3.0 8.0 0.00 0.01 0.00 44 1006.4
20260504172107 60 307 4.0 8.0 0.00 0.01 0.00 44 1006.4
20260504172008 60 301 4.0 8.0 0.00 0.01 0.00 44 1006.5
20260504171907 60 303 2.0 7.0 0.00 0.01 0.00 43 1006.3
20260504171708 60 308 4.0 8.0 0.00 0.01 0.00 43 1006.3
20260504171607 60 298 4.0 8.0 0.00 0.01 0.00 41 1006.3
20260504171507 60 293 4.0 8.0 0.00 0.01 0.00 41 1006.3
20260504171408 60 296 4.0 8.0 0.00 0.01 0.00 42 1006.2
20260504171307 60 303 3.0 8.0 0.00 0.01 0.00 44 1006.3
20260504171207 60 287 2.0 8.0 0.00 0.01 0.00 45 1006.3
20260504171107 60 281 2.0 8.0 0.00 0.01 0.00 45 1006.3
20260504171007 60 0 0.0 8.0 0.00 0.01 0.00 44 1006.3
20260504170907 60 284 2.0 8.0 0.00 0.01 0.00 44 1006.3
20260504170807 59 283 5.0 8.0 0.00 0.01 0.00 44 1006.4
20260504170607 59 282 2.0 6.0 0.00 0.01 0.00 48 1006.3
20260504170507 59 281 2.0 6.0 0.00 0.01 0.00 48 1006.3
20260504170407 58 285 1.0 6.0 0.00 0.01 0.00 50 1006.4
20260504170207 57 287 1.0 7.0 0.00 0.01 0.00 52 1006.3
20260504160408 54 0 0.0 4.0 0.00 0.01 0.00 57 1006.5
20260504160307 54 0 0.0 4.0 0.00 0.01 0.00 58 1006.4
20260504160207 54 257 1.0 4.0 0.00 0.01 0.00 58 1006.5
20260504160107 54 238 1.0 4.0 0.00 0.01 0.00 58 1006.4
20260504151107 51 156 1.0 3.0 0.00 0.01 0.00 68 1006.6
20260504151007 51 169 1.0 2.0 0.00 0.01 0.00 68 1006.6
20260504150907 51 172 1.0 2.0 0.00 0.01 0.00 68 1006.6
20260504150807 51 0 0.0 2.0 0.00 0.01 0.00 69 1006.6
20260504150707 50 0 0.0 2.0 0.00 0.01 0.00 70 1006.5
20260504150607 50 0 0.0 2.0 0.00 0.01 0.00 70 1006.5
20260504150507 50 0 0.0 2.0 0.00 0.01 0.00 70 1006.6
20260504150307 50 0 0.0 2.0 0.00 0.01 0.00 70 1006.7
20260504150207 50 0 0.0 2.0 0.00 0.01 0.00 70 1006.7
20260504150107 50 0 0.0 2.0 0.00 0.01 0.00 70 1006.6
20260504141307 46 100 2.0 4.0 0.00 0.01 0.00 76 1006.8
20260504141207 46 102 2.0 3.0 0.00 0.01 0.00 77 1006.8
20260504141107 46 102 1.0 3.0 0.00 0.01 0.00 77 1006.8
20260504141007 46 103 1.0 3.0 0.00 0.01 0.00 77 1006.8
20260504140907 46 101 1.0 3.0 0.00 0.01 0.00 77 1006.9
20260504140807 46 90 1.0 2.0 0.00 0.01 0.00 78 1006.8
20260504140707 45 90 1.0 2.0 0.00 0.01 0.00 78 1006.9
20260504140607 45 92 1.0 2.0 0.00 0.01 0.00 78 1006.8
20260504140507 45 94 1.0 2.0 0.00 0.01 0.00 78 1006.7
20260504140407 45 98 1.0 2.0 0.00 0.01 0.00 78 1006.8
20260504140307 45 99 1.0 2.0 0.00 0.01 0.00 78 1006.7
20260504130807 43 0 0.0 3.0 0.00 0.01 0.00 76 1006.4
20260504130707 43 183 1.0 3.0 0.00 0.01 0.00 75 1006.5
20260504130607 43 184 1.0 3.0 0.00 0.01 0.00 75 1006.4
20260504130507 43 185 1.0 3.0 0.00 0.01 0.00 75 1006.4
20260504130407 43 185 1.0 3.0 0.00 0.01 0.00 75 1006.5
20260504130206 43 192 1.0 3.0 0.00 0.01 0.00 75 1006.5
20260504130107 43 200 1.0 3.0 0.00 0.01 0.00 75 1006.5
20260504120307 44 91 2.0 3.0 0.00 0.01 0.00 74 1006.4
20260504120206 44 92 2.0 3.0 0.00 0.01 0.00 74 1006.4
20260504120107 44 92 2.0 3.0 0.00 0.01 0.00 74 1006.4
20260504110707 44 90 3.0 4.0 0.00 0.01 0.00 78 1006.4
20260504110507 44 90 3.0 4.0 0.00 0.01 0.00 78 1006.5
20260504110407 44 90 3.0 4.0 0.00 0.01 0.00 78 1006.4
20260504110307 44 90 3.0 4.0 0.00 0.01 0.00 78 1006.5
20260504110207 44 90 3.0 4.0 0.00 0.01 0.00 78 1006.6
20260504110107 44 90 3.0 4.0 0.00 0.01 0.00 78 1006.4
20260504100607 45 0 0.0 2.0 0.00 0.01 0.00 71 1006.7
20260504100507 45 0 0.0 2.0 0.00 0.01 0.00 71 1006.7
20260504100407 45 0 0.0 2.0 0.00 0.01 0.00 71 1006.6
20260504100307 45 0 0.0 3.0 0.00 0.01 0.00 71 1006.6
20260504100207 45 0 0.0 3.0 0.00 0.01 0.00 71 1006.8
20260504090107 46 58 2.0 4.0 0.00 0.01 0.00 68 1006.6
20260504081807 47 0 0.0 2.0 0.00 0.01 0.00 69 1007.0
20260504081707 47 0 0.0 1.0 0.00 0.01 0.00 69 1007.1
20260504081307 47 0 0.0 1.0 0.00 0.01 0.00 69 1007.2
20260504081207 47 0 0.0 1.0 0.00 0.01 0.00 68 1007.1
20260504081106 47 0 0.0 1.0 0.00 0.01 0.00 68 1007.2
20260504081007 47 0 0.0 1.0 0.00 0.01 0.00 68 1007.2
20260504080907 47 0 0.0 1.0 0.00 0.01 0.00 68 1007.2
20260504080807 47 0 0.0 2.0 0.00 0.01 0.00 68 1007.2
20260504080507 47 0 0.0 2.0 0.00 0.01 0.00 67 1007.1
20260504080407 47 0 0.0 2.0 0.00 0.01 0.00 67 1007.2
20260504080306 47 0 0.0 2.0 0.00 0.01 0.00 67 1007.2
20260504080207 47 0 0.0 2.0 0.00 0.01 0.00 67 1007.2
20260504080107 47 0 0.0 2.0 0.00 0.01 0.00 67 1007.2
20260504070407 45 102 1.0 4.0 0.00 0.01 0.00 74 1007.3
20260504070307 45 110 1.0 4.0 0.00 0.01 0.00 74 1007.3
20260504070207 45 115 1.0 4.0 0.00 0.01 0.00 74 1007.3
20260504070106 45 120 1.0 4.0 0.00 0.01 0.00 74 1007.3
20260504060206 49 100 1.0 3.0 0.00 0.01 0.01 69 1007.3
20260504060107 49 100 1.0 3.0 0.00 0.01 0.01 69 1007.4
20260504050707 51 0 0.0 0.0 0.00 0.01 0.01 66 1007.4
20260504050607 51 0 0.0 0.0 0.00 0.01 0.01 66 1007.5
20260504050507 51 0 0.0 0.0 0.00 0.01 0.01 66 1007.5
20260504050406 51 0 0.0 0.0 0.00 0.01 0.01 66 1007.5
20260504050307 51 0 0.0 0.0 0.00 0.01 0.01 66 1007.5
20260504050206 51 0 0.0 0.0 0.00 0.01 0.01 66 1007.5
20260504050007 51 0 0.0 0.0 0.00 0.01 0.01 66 1007.5
20260504045806 51 0 0.0 0.0 0.00 0.01 0.01 65 1007.5
20260504045707 51 0 0.0 0.0 0.00 0.01 0.01 65 1007.5
20260504045607 51 0 0.0 0.0 0.00 0.01 0.01 65 1007.5
20260504045506 51 0 0.0 1.0 0.00 0.01 0.01 65 1007.5
20260504045407 51 0 0.0 1.0 0.00 0.01 0.01 65 1007.6
20260504045306 51 0 0.0 1.0 0.00 0.01 0.01 65 1007.5
20260504044906 51 0 0.0 1.0 0.00 0.01 0.01 65 1007.6
20260504044808 52 0 0.0 1.0 0.00 0.01 0.01 65 1007.6
20260504044707 52 0 0.0 1.0 0.00 0.01 0.01 64 1007.5
20260504044606 52 0 0.0 1.0 0.00 0.01 0.01 64 1007.6
20260504044507 52 0 0.0 1.0 0.00 0.01 0.01 64 1007.7
20260504044406 52 0 0.0 1.0 0.00 0.01 0.01 64 1007.5
20260504044306 52 0 0.0 1.0 0.00 0.01 0.01 64 1007.5
20260504044006 52 0 0.0 2.0 0.00 0.01 0.01 63 1007.5
20260504043907 52 0 0.0 2.0 0.00 0.01 0.01 62 1007.5
20260504043807 52 0 0.0 2.0 0.00 0.01 0.01 62 1007.7
20260504043707 52 0 0.0 2.0 0.00 0.01 0.01 62 1007.7
20260504043506 52 0 0.0 2.0 0.00 0.01 0.01 62 1007.7
20260504043407 52 0 0.0 2.0 0.00 0.01 0.01 62 1007.6
20260504043307 52 0 0.0 2.0 0.00 0.01 0.01 62 1007.6
20260504043206 52 0 0.0 3.0 0.00 0.01 0.01 62 1007.7
20260504043107 52 0 0.0 3.0 0.00 0.01 0.01 61 1007.7
20260504042907 52 0 0.0 3.0 0.00 0.01 0.01 61 1007.8
20260504042807 52 0 0.0 3.0 0.00 0.01 0.01 61 1007.8
20260504042706 52 0 0.0 3.0 0.00 0.01 0.01 61 1007.8
20260504042607 52 0 0.0 3.0 0.00 0.01 0.01 61 1007.8
20260504042506 52 0 0.0 3.0 0.00 0.01 0.01 61 1007.7
20260504042407 52 0 0.0 3.0 0.00 0.01 0.01 61 1007.8
20260504042307 52 0 0.0 3.0 0.00 0.01 0.01 61 1007.8
20260504042207 53 216 1.0 3.0 0.00 0.01 0.01 61 1007.8
20260504042107 53 212 1.0 3.0 0.00 0.01 0.01 61 1007.7
20260504042006 53 206 1.0 3.0 0.00 0.01 0.01 61 1007.7
20260504041907 53 199 1.0 3.0 0.00 0.01 0.01 61 1007.7
20260504041706 53 175 1.0 3.0 0.00 0.01 0.01 61 1007.8
20260504041607 53 159 1.0 3.0 0.00 0.01 0.01 61 1007.8
20260504041506 53 144 1.0 3.0 0.00 0.01 0.01 61 1007.8
20260504041407 53 0 0.0 2.0 0.00 0.01 0.01 61 1007.7
20260504041307 52 0 0.0 2.0 0.00 0.01 0.01 61 1007.8
20260504041207 52 0 0.0 2.0 0.00 0.01 0.01 61 1007.8
20260504041107 52 0 0.0 2.0 0.00 0.01 0.01 61 1007.8
20260504041006 52 0 0.0 2.0 0.00 0.01 0.01 61 1007.8
20260504040807 52 0 0.0 2.0 0.00 0.01 0.01 61 1007.9
20260504040707 52 0 0.0 2.0 0.00 0.01 0.01 61 1007.9
20260504040607 52 0 0.0 2.0 0.00 0.01 0.01 61 1007.9
20260504040407 52 0 0.0 2.0 0.00 0.01 0.01 61 1007.9
20260504040307 52 0 0.0 2.0 0.00 0.01 0.01 61 1007.9
20260504040206 52 129 1.0 2.0 0.00 0.01 0.01 61 1007.9
20260504040107 53 129 1.0 2.0 0.00 0.01 0.01 60 1007.9
20260504040007 53 0 0.0 2.0 0.00 0.01 0.01 60 1007.8
20260504035906 53 0 0.0 3.0 0.00 0.01 0.01 60 1007.8
20260504035707 53 0 0.0 3.0 0.00 0.01 0.01 60 1007.9
20260504035606 53 0 0.0 3.0 0.00 0.01 0.01 60 1007.8
20260504035506 53 0 0.0 4.0 0.00 0.01 0.01 60 1007.8
20260504035407 53 0 0.0 4.0 0.00 0.01 0.01 60 1007.7
20260504035206 53 0 0.0 4.0 0.00 0.01 0.01 60 1007.8
20260504035107 53 90 1.0 4.0 0.00 0.01 0.01 60 1007.8
20260504034706 53 100 2.0 4.0 0.00 0.01 0.01 60 1007.8
20260504034507 53 109 2.0 4.0 0.00 0.01 0.01 60 1007.8
20260504034407 53 115 2.0 4.0 0.00 0.01 0.01 59 1007.7
20260504034306 53 122 2.0 3.0 0.00 0.01 0.01 58 1007.8
20260504034207 53 129 1.0 2.0 0.00 0.01 0.01 58 1007.7
20260504034107 53 125 1.0 2.0 0.00 0.01 0.01 58 1007.7
20260504034006 53 122 1.0 2.0 0.00 0.01 0.01 58 1007.8
20260504033907 53 127 1.0 2.0 0.00 0.01 0.01 58 1007.7
20260504033806 53 128 2.0 3.0 0.00 0.01 0.01 58 1007.8
20260504033708 53 0 0.0 3.0 0.00 0.01 0.01 58 1007.7
20260504033507 53 0 0.0 3.0 0.00 0.01 0.01 59 1007.6
20260504033406 53 123 1.0 3.0 0.00 0.01 0.01 59 1007.6
20260504033307 53 121 1.0 3.0 0.00 0.01 0.01 59 1007.6
20260504033207 53 0 0.0 3.0 0.00 0.01 0.01 59 1007.6
20260504033107 53 0 0.0 3.0 0.00 0.01 0.01 59 1007.6
20260504033007 53 0 0.0 3.0 0.00 0.01 0.01 59 1007.4
20260504032706 53 0 0.0 2.0 0.00 0.01 0.01 59 1007.5
20260504032606 53 0 0.0 2.0 0.00 0.01 0.01 59 1007.4
20260504032507 53 0 0.0 2.0 0.00 0.01 0.01 59 1007.5
20260504032406 53 0 0.0 2.0 0.00 0.01 0.01 59 1007.5
20260504032307 53 0 0.0 2.0 0.00 0.01 0.01 59 1007.4
20260504032106 53 0 0.0 3.0 0.00 0.01 0.01 59 1007.4
20260504032007 53 0 0.0 3.0 0.00 0.01 0.01 59 1007.4
20260504031907 53 144 1.0 3.0 0.00 0.01 0.01 59 1007.4
20260504031807 53 142 1.0 3.0 0.00 0.01 0.01 59 1007.2
20260504031706 53 147 1.0 3.0 0.00 0.01 0.01 59 1007.5
20260504031606 53 147 1.0 3.0 0.00 0.01 0.01 59 1007.4
20260504031507 53 148 1.0 3.0 0.00 0.01 0.01 59 1007.3
20260504031206 53 0 0.0 2.0 0.00 0.01 0.01 59 1007.3
20260504031107 53 0 0.0 2.0 0.00 0.01 0.01 59 1007.2
20260504031006 53 0 0.0 2.0 0.00 0.01 0.01 59 1007.1
20260504030906 53 0 0.0 2.0 0.00 0.01 0.01 59 1007.1
20260504030707 54 0 0.0 2.0 0.00 0.01 0.01 58 1007.3
20260504030606 54 0 0.0 2.0 0.00 0.01 0.01 58 1007.2
20260504030508 54 0 0.0 2.0 0.00 0.01 0.01 58 1007.3
20260504030407 54 0 0.0 2.0 0.00 0.01 0.01 58 1007.3
20260504030306 54 0 0.0 2.0 0.00 0.01 0.01 58 1007.2
20260504030207 54 0 0.0 3.0 0.00 0.01 0.01 58 1007.3
20260504030106 54 0 0.0 3.0 0.00 0.01 0.01 58 1007.2
20260504030006 54 120 1.0 3.0 0.00 0.01 0.01 58 1007.3
20260504025907 54 117 1.0 3.0 0.00 0.01 0.01 58 1007.2
20260504025806 54 113 1.0 3.0 0.00 0.01 0.01 58 1007.2
20260504025707 54 119 1.0 4.0 0.00 0.01 0.01 58 1007.2
20260504025607 54 117 1.0 4.0 0.00 0.01 0.01 58 1007.2
20260504025407 54 0 0.0 4.0 0.00 0.01 0.01 57 1007.3
20260504025306 54 0 0.0 4.0 0.00 0.01 0.01 57 1007.2
20260504025107 54 0 0.0 4.0 0.00 0.01 0.01 57 1007.2
20260504025007 54 124 2.0 4.0 0.00 0.01 0.01 57 1007.1
20260504024907 54 122 2.0 4.0 0.00 0.01 0.01 56 1007.3
20260504024806 54 129 2.0 4.0 0.00 0.01 0.01 56 1007.2
20260504024707 54 0 0.0 3.0 0.00 0.01 0.01 56 1007.2
20260504024606 54 131 1.0 3.0 0.00 0.01 0.01 56 1007.2
20260504024507 54 0 0.0 3.0 0.00 0.01 0.01 56 1007.2
20260504024407 54 130 1.0 3.0 0.00 0.01 0.01 56 1007.2
20260504024306 54 130 1.0 2.0 0.00 0.01 0.01 56 1007.2
20260504024107 55 129 1.0 2.0 0.00 0.01 0.01 55 1007.1
20260504024006 55 138 1.0 2.0 0.00 0.01 0.01 55 1007.1
20260504023806 55 0 0.0 2.0 0.00 0.01 0.01 55 1007.2
20260504023607 55 138 1.0 2.0 0.00 0.01 0.01 54 1007.0
20260504023506 55 0 0.0 2.0 0.00 0.01 0.01 54 1007.1
20260504023407 55 0 0.0 2.0 0.00 0.01 0.01 54 1007.0
20260504023207 56 0 0.0 3.0 0.00 0.01 0.01 54 1007.0
20260504023106 56 140 1.0 3.0 0.00 0.01 0.01 53 1007.0
20260504023007 56 143 1.0 3.0 0.00 0.01 0.01 53 1007.0
20260504022906 56 0 0.0 3.0 0.00 0.01 0.01 53 1006.9
20260504022807 56 139 1.0 3.0 0.00 0.01 0.01 52 1007.0
20260504022707 56 0 0.0 3.0 0.00 0.01 0.01 52 1007.0
20260504022607 56 0 0.0 3.0 0.00 0.01 0.01 52 1007.0
20260504022307 57 148 1.0 2.0 0.00 0.01 0.01 51 1007.0
20260504022207 57 0 0.0 2.0 0.00 0.01 0.01 51 1007.0
20260504022107 57 0 0.0 3.0 0.00 0.01 0.01 50 1006.9